Location: Greenhawk Observatory
(37.3417°N, 122.0298°W)
Time: 01:46:21
(UTC-08:00)

Daily predictions for brighter satellites

Satellite Brightness Start Highest point End
(mag) Time Altitude Azimuth Time Altitude Azimuth Time Altitude Azimuth
DELTA 2 R/B (1) 4.2 04:45:41 49° SSE 04:45:41 49° SSE 04:50:53 10° E
COSMO-SKYMED 1 4.2 04:47:37 10° SE 04:51:28 32° ENE 04:53:20 23° NNE
Cosmos 304 Rocket 3.9 05:00:38 70° ESE 05:00:38 70° ESE 05:05:01 10° SSE
Cosmos 1500 Rocket 3.8 05:05:52 70° E 05:05:52 70° E 05:10:13 10° SSE
Cosmos 1328 4.5 05:06:42 53° ESE 05:06:42 53° ESE 05:10:14 10° SSE
Cosmos 2233 Rocket 3.8 05:02:16 10° S 05:08:30 81° W 05:14:50 10° N
ISS -1.5 05:14:38 30° SE 05:14:38 30° SE 05:16:26 10° SE
Cosmos 2237 Rocket 4.3 05:19:57 12° SSW 05:19:57 12° SSW 05:20:28 10° SSW
OAO 2 Rocket 3.4 05:17:32 57° SSW 05:17:52 59° S 05:22:42 10° ESE
SeaSat 1 4.4 05:15:28 10° N 05:16:40 16° N 05:16:40 16° N
ATLAS 2A CENTAUR R/B 4.4 05:21:30 21° SSW 05:21:47 21° SSW 05:24:16 10° SE
SL-16 R/B 2.2 05:21:10 54° WNW 05:21:50 58° WSW 05:27:22 10° S
Thor Agena Rocket 4.1 05:19:08 10° S 05:23:06 40° SW 05:23:06 40° SW
Cosmos 2297 Rocket 4.0 05:29:04 15° NNW 05:29:04 15° NNW 05:30:27 10° N
Cosmos 968 Rocket 3.7 05:27:04 48° NW 05:27:04 48° NW 05:31:48 10° N
Cosmos 2346 Rocket 4.3 05:21:30 10° N 05:27:36 74° W 05:33:36 10° S
Meteor 1-28 Rocket 3.7 05:29:36 10° SSE 05:33:18 58° ENE 05:36:22 14° N
PSLV R/B 3.7 05:34:15 53° NNE 05:34:15 53° NNE 05:37:12 10° ENE
Cosmos 1271 Rocket 2.5 05:32:24 10° SSW 05:36:14 75° W 05:40:01 10° N
Cosmos 1626 4.2 05:34:23 10° NNE 05:37:40 28° ENE 05:40:55 10° SE
SKYMED 2 3.4 05:35:08 10° S 05:39:26 69° W 05:41:58 24° NNW
Cosmos 2058 2.9 05:37:00 12° N 05:40:46 83° E 05:44:54 10° S
Cosmos 773 Rocket 4.1 05:37:33 12° NNW 05:42:35 81° ENE 05:47:52 10° SSE
Meteor 1-16 Rocket 4.1 05:42:01 10° SSW 05:47:18 53° WNW 05:52:31 10° N
Cosmos 1340 Rocket 2.6 05:46:21 17° NNW 05:49:22 78° W 05:53:19 10° S
NOAA 6 4.4 05:45:55 10° N 05:50:43 39° WNW 05:55:30 10° SW
USA 229 DEB 4.4 05:48:20 27° WNW 05:50:50 34° WSW 05:57:10 10° S
Cosmos 2221 2.4 05:46:31 10° S 05:50:51 77° W 05:55:10 10° N
USA 229 4.4 05:48:22 27° WNW 05:50:56 34° WSW 05:57:17 10° S
Meteor 2-12 Rocket 4.4 05:46:46 10° S 05:52:54 81° W 05:59:06 10° N
Meteor 1-11 4.2 05:47:17 10° NNW 05:53:03 67° W 05:58:47 10° S
SL-14 R/B 3.6 05:52:38 28° NW 05:54:18 45° W 05:58:09 10° SSW
Cosmos 292 Rocket 4.2 05:51:31 10° N 05:56:16 62° ENE 06:01:01 10° SSE
Tiangong 2 1.2 05:57:49 30° SW 05:59:11 68° SSE 06:02:18 10° ENE
Cosmos 1464 Rocket 4.0 05:55:48 10° SSW 06:02:06 68° W 06:08:22 10° N
Cosmos 1943 4.1 05:57:20 10° NNW 06:02:52 50° ENE 06:08:22 10° SE
Cosmos 1356 Rocket 3.5 05:59:23 10° N 06:03:31 78° E 06:07:41 10° SSE
CSL-04 DEB 4.5 06:00:05 10° NNE 06:04:28 87° WNW 06:08:45 10° SSW
NOSS 3-1 (A) 4.1 05:57:10 10° NNW 06:04:57 85° WSW 06:13:25 10° SSE
SMAP 4.4 06:01:22 10° NNE 06:05:49 43° E 06:10:15 10° S
Cosmos 1777 Rocket 4.4 06:02:44 10° SW 06:07:36 40° WNW 06:12:30 10° N
ERBS 2.7 06:06:37 29° WNW 06:07:53 43° SW 06:11:08 10° SSE
Cosmos 2344 3.9 06:04:55 10° SSW 06:12:34 74° ESE 06:20:52 10° NE
ATLAS 2AS CENTAUR R/B 4.2 06:06:02 10° NNW 06:13:28 39° NE 06:20:27 10° ESE
Cosmos 2151 3.9 06:12:41 16° NW 06:15:06 27° W 06:18:40 10° SSW
CSL-04 Debris 4.1 06:11:56 10° N 06:17:24 70° WNW 06:22:47 10° SSW
SPOT 3 Rocket 4.5 06:16:58 10° NNE 06:22:05 54° E 06:27:10 10° S
Cosmos 1908 3.2 06:19:19 10° S 06:23:08 89° E 06:26:59 10° N
Cosmos 2263 Rocket 2.4 06:18:02 10° SSW 06:23:42 81° ESE 06:29:25 10° NNE
Cosmos 1603 4.0 06:20:41 10° NW 06:26:02 46° WSW 06:31:24 10° S
SJ-12 3.8 06:23:19 10° N 06:27:24 79° WNW 06:31:28 10° SSW
COSMO-SKYMED 1 3.9 06:24:33 10° SW 06:27:40 19° W 06:30:33 11° NW
USA 234 4.0 06:22:12 10° ESE 06:28:29 50° NE 06:34:46 10° NW
IRS-1A Rocket 4.3 06:23:17 10° N 06:29:10 73° WNW 06:34:55 10° SSW
DELTA 2 R/B (1) 3.6 06:26:29 11° W 06:31:54 78° N 06:37:29 10° ENE
CZ-4 R/B 1.4 06:31:35 10° N 06:35:37 63° WNW 06:39:42 10° SSW
Cosmos 1726 4.1 06:32:26 10° SSE 06:35:45 33° E 06:39:06 10° NNE
Cosmos 1805 Rocket 4.1 06:32:01 10° NNW 06:36:06 37° W 06:40:08 10° SSW
CZ-2C R/B 2.2 06:33:03 10° N 06:37:37 71° WNW 06:42:09 10° SSW
Genesis I 4.4 06:34:41 11° WNW 06:37:41 26° WSW 06:40:58 10° S
GPS 2-05 Rocket1 3.1 06:35:57 11° W 06:39:03 57° S 06:42:20 10° ESE
Cosmos 2228 Rocket 3.0 06:36:13 10° S 06:40:39 78° W 06:45:04 10° N
IDEFIX/ARIANE 42P 2.6 06:36:29 10° N 06:41:44 69° WNW 06:46:56 10° SSW
CSL-04 Rocket 4.2 06:38:21 10° N 06:43:03 34° WNW 06:47:44 10° SW
Cosmos 1300 4.2 06:39:41 10° SSE 06:43:17 42° E 06:46:55 10° NNE
Ariane Rocket 3.9 06:39:48 10° NNW 06:43:58 26° WNW 06:48:09 10° WSW
SL-8 R/B 3.7 06:41:45 10° WNW 06:46:35 83° SW 06:51:23 10° SE
Milstar 3 Cent rocket 4.1 06:41:52 10° SW 06:47:51 27° S 06:52:04 10° ESE
Coronas F rocket 1.8 06:46:33 10° NNW 06:48:45 31° W 06:50:55 10° SSW
Iridium 4 Rocket 3.9 06:46:20 10° N 06:50:37 57° E 06:55:14 10° SSE
COSMOS 2441 4.4 06:49:00 10° NNE 06:53:50 89° W 06:58:36 10° SSW
Cosmos 1680 Rocket 4.0 06:49:00 10° NNW 06:53:59 42° WSW 06:58:58 10° S
AQUARIUS 4.3 06:50:24 10° N 06:54:46 51° WNW 06:59:07 10° SSW
Cosmos 1898 Rocket 3.5 06:49:40 10° SSW 06:54:53 75° WNW 07:00:12 10° NNE
Meteor 2-2 Rocket 4.4 06:49:07 10° S 06:55:00 86° W 07:00:47 10° N
Cosmos 1634 Rocket 4.1 06:52:10 10° S 06:58:29 87° W 07:04:47 10° N
